Погода в Мирном

Россия / Архангельская область     61°04′09″N   40°04′04″E
темп.,
°C
ветер,
м/с
пор.,
м/с
влажн.,
%
обл.,
%
осадки,
мм/ч
давл.,
гПа
погр.,
м
18 октября, пн
пн1800:00+3юз5127556 0.0 10001002
03:00+3юз5117495 0.0 10001046
06:00+2зюз51077100 0.0 10001098
09:00+2юз4880100 0.1 1001933
12:00+3юз487645 0.0 1001890
15:00+4юз477156 0.2 1001971
18:00+1юз3996100 0.1 1002617
21:00+1сз3796100 0.4 1002447
19 октября, вт
вт1900:00+1сз3890100 0.1 1004608
03:00+1зсз389399 0.2 1006543
06:00+1зсз3897100 0.4 1007421
09:00+1сз478076 0.6 1009819
12:00+1сз3674100 0.0 10111011
15:00+2сз3672100 0.1 1012979
18:00−1сз3885100 0.0 1014379
21:00−2сз39875 0.0 1015402
20 октября, ср
ср2000:00−3зсз28919 0.0 1016331
03:00−3зсз28895 0.0 1017300
06:00−3з269097 0.0 1018203
09:00−2з2480100 0.0 1018263
12:00+1юз2361100 0.0 1017798
15:00+1ююз3569100 0.0 1015901
18:00−2ю398638 0.0 1013476
21:00−1ююв51281100 0.0 1010693
21 октября, чт
чт2100:00−1ююв61578100 0.0 1005768
03:00−1ююв61793100 0.4 999785
06:000ю71795100 2.9 992885
09:00+1ю71893100 5.4 987770
12:00+5ююз71996100 2.6 984965
15:00+10юз81889100 4.2 9821465
18:00+10юз81888100 0.2 9831463
21:00+9зюз51390100 0.4 984998
22 октября, пт
пт2200:00+9юз41295100 1.4 983663
03:00+8ю3898100 5.0 980304
06:00+8юз51393100 6.1 9801014
09:00+8юз41290100 6.4 981722
12:00+7зюз2698100 0.9 981297
15:00+8зюз4118885 1.0 985913
18:00+8зюз51189100 0.6 9881220
21:00+6з61394100 1.4 9931164